Location: Baia Mare
(47.6567°N, 23.5850°E)
Time: 15:55:09
(UTC+03:00)

ISS - Pass Details

Date: 10 May 2018
Orbit: 402 x 407 km, 51.6° (Epoch: 25 May)

Event Time Altitude Azimuth Distance (km) Brightness Sun altitude
Exits shadow 04:54:02 - 267° (W) 1,511 -1.4 -9.4°
Reaches altitude 10° 04:54:11 10° 267° (W) 1,455 -1.5 -9.4°
Maximum altitude 04:57:22 52° 345° (NNW) 509 -3.2 -9.0°
Drops below altitude 10° 05:00:35 10° 64° (ENE) 1,459 0.5 -8.5°
Sets 05:02:42 0° 69° (ENE) 2,321 1.7 -8.3°
